Voltar ao catálogo

STARLINK-35983

AtivoComunicaçõesVLEO
NORAD 66902·PAYLOAD·🇺🇸 United States

Lançado Dec 4, 2025 de Vandenberg Space Force Base

Loading…

Próximas Passagens (próximas 24 horas)

TLE

AtualizadoSource: CelesTrak SupGP

Época: Sep 15, 2026, 03:41 UTC

1 66902C 25283AA  26258.15395833 -.00059426  00000+0 -17561-2 0  2580
2 66902  53.1581 220.6263 0001339  88.8794 187.8320 15.34414734    15

Acompanhe STARLINK-35983 em tempo real com AllMySat

Download on the App Store